JBU1721 KJFK-KTPA

Flight info

Callsign JBU1721
Flight time N/A
Altitude 34000
Route SKORR6 RNGRR WHITE Q409 ENEME/N0466F350 BAAMF DADES2
Aircraft A21N/M-SDE2E3FGHIRWXY/LB1

Departure

Time N/A
Airport John F. Kennedy International Airport (KJFK)

Arrival

Time 2026-05-08 01:38
Airport Tampa International Airport (KTPA)
Time Latitude Longitude Altitude Speed Heading
2026-05-08 00:19 34.13432 -79.30281 33835 ft 382 kts 229°
2026-05-08 00:19 34.11374 -79.32306 33834 ft 382 kts 229°
2026-05-08 00:19 34.07252 -79.36354 33832 ft 382 kts 229°
2026-05-08 00:20 34.03135 -79.40404 33845 ft 382 kts 229°
2026-05-08 00:20 33.99011 -79.44450 33840 ft 382 kts 229°
2026-05-08 00:21 33.94908 -79.48465 33852 ft 382 kts 229°
2026-05-08 00:21 33.90749 -79.52530 33849 ft 383 kts 229°
2026-05-08 00:22 33.86639 -79.56535 33850 ft 383 kts 229°
2026-05-08 00:22 33.82425 -79.60482 33842 ft 384 kts 228°
2026-05-08 00:23 33.78204 -79.64417 33849 ft 384 kts 228°
2026-05-08 00:23 33.73974 -79.68364 33837 ft 386 kts 228°
2026-05-08 00:24 33.69724 -79.72321 33864 ft 386 kts 228°
2026-05-08 00:24 33.65475 -79.76269 33868 ft 386 kts 228°
2026-05-08 00:25 33.61221 -79.80224 33868 ft 386 kts 228°
2026-05-08 00:25 33.56977 -79.84157 33868 ft 386 kts 228°
2026-05-08 00:26 33.52727 -79.88094 33828 ft 387 kts 227°
2026-05-08 00:26 33.48450 -79.92050 33859 ft 389 kts 227°
2026-05-08 00:27 33.44167 -79.96007 33866 ft 389 kts 227°
2026-05-08 00:27 33.39883 -79.99959 33878 ft 389 kts 227°
2026-05-08 00:28 33.35599 -80.03908 33882 ft 389 kts 227°
2026-05-08 00:28 33.31316 -80.07850 33888 ft 389 kts 227°
2026-05-08 00:29 33.27017 -80.11802 33870 ft 391 kts 227°
2026-05-08 00:29 33.22693 -80.15770 33886 ft 392 kts 227°
2026-05-08 00:30 33.18375 -80.19729 33891 ft 390 kts 227°
2026-05-08 00:30 33.14070 -80.23665 33879 ft 390 kts 227°
2026-05-08 00:31 33.09769 -80.27601 33880 ft 390 kts 227°
2026-05-08 00:31 33.05460 -80.31537 33878 ft 390 kts 227°
2026-05-08 00:32 33.01153 -80.35468 33886 ft 390 kts 227°
2026-05-08 00:32 32.96838 -80.39397 33887 ft 390 kts 227°
2026-05-08 00:33 32.92529 -80.43317 33892 ft 390 kts 227°
2026-05-08 00:33 32.88214 -80.47238 33898 ft 390 kts 227°
2026-05-08 00:34 32.83901 -80.51155 33891 ft 390 kts 227°
2026-05-08 00:34 32.79583 -80.55066 33840 ft 390 kts 227°
2026-05-08 00:35 32.75235 -80.59007 33874 ft 394 kts 226°
2026-05-08 00:35 32.70867 -80.62954 33905 ft 394 kts 226°
2026-05-08 00:36 32.66557 -80.66959 33902 ft 393 kts 227°
2026-05-08 00:36 32.62255 -80.70973 33907 ft 393 kts 227°
2026-05-08 00:37 32.57922 -80.75007 33910 ft 393 kts 227°
2026-05-08 00:38 32.51466 -80.80999 33904 ft 397 kts 227°
2026-05-08 00:38 32.47111 -80.85033 33906 ft 397 kts 227°
2026-05-08 00:39 32.42754 -80.89062 33909 ft 397 kts 227°
2026-05-08 00:39 32.38406 -80.93083 33915 ft 396 kts 227°
2026-05-08 00:40 32.34054 -80.97100 33910 ft 396 kts 227°
2026-05-08 00:40 32.29706 -81.01108 33895 ft 397 kts 227°
2026-05-08 00:41 32.24960 -81.04674 33924 ft 409 kts 219°
2026-05-08 00:41 32.19996 -81.07973 33931 ft 410 kts 219°
2026-05-08 00:42 32.15023 -81.11284 33930 ft 410 kts 219°
2026-05-08 00:42 32.10066 -81.14597 33930 ft 410 kts 220°
2026-05-08 00:43 32.05910 -81.17372 33897 ft 410 kts 219°
2026-05-08 00:43 32.00935 -81.20690 33872 ft 413 kts 219°
2026-05-08 00:44 31.96031 -81.24153 33885 ft 405 kts 226°
2026-05-08 00:44 31.91832 -81.28452 33897 ft 399 kts 231°
2026-05-08 00:45 31.87724 -81.32831 33914 ft 398 kts 230°
2026-05-08 00:45 31.83609 -81.37187 33918 ft 398 kts 230°
2026-05-08 00:46 31.79488 -81.41531 33921 ft 398 kts 230°
2026-05-08 00:46 31.75354 -81.45884 33912 ft 400 kts 230°
2026-05-08 00:47 31.71204 -81.50248 33921 ft 400 kts 230°
2026-05-08 00:47 31.67051 -81.54607 33924 ft 400 kts 230°
2026-05-08 00:48 31.62896 -81.58962 33946 ft 400 kts 230°
2026-05-08 00:48 31.58738 -81.63318 33954 ft 400 kts 230°
2026-05-08 00:49 31.54580 -81.67664 33965 ft 400 kts 229°
2026-05-08 00:49 31.50428 -81.72002 33960 ft 401 kts 229°
2026-05-08 00:50 31.46259 -81.76352 33968 ft 401 kts 229°
2026-05-08 00:50 31.42093 -81.80693 33970 ft 401 kts 229°
2026-05-08 00:51 31.37681 -81.84780 33967 ft 405 kts 224°
2026-05-08 00:51 31.33173 -81.88740 33961 ft 405 kts 224°
2026-05-08 00:52 31.28665 -81.92703 33952 ft 405 kts 224°
2026-05-08 00:52 31.24147 -81.96679 33930 ft 408 kts 224°
2026-05-08 00:53 31.19594 -82.00666 33948 ft 409 kts 224°
2026-05-08 00:53 31.15014 -82.04683 33951 ft 409 kts 224°
2026-05-08 00:54 31.10457 -82.08677 33950 ft 409 kts 224°
2026-05-08 00:54 31.05897 -82.12662 33958 ft 409 kts 224°
2026-05-08 00:55 31.01342 -82.16643 33956 ft 409 kts 224°
2026-05-08 00:55 30.96761 -82.20640 33954 ft 414 kts 224°
2026-05-08 00:56 30.92139 -82.24668 33949 ft 415 kts 224°
2026-05-08 00:56 30.87518 -82.28691 33949 ft 415 kts 224°
2026-05-08 00:57 30.82816 -82.32609 33948 ft 422 kts 218°
2026-05-08 00:57 30.80080 -82.33975 33948 ft 437 kts 205°
2026-05-08 00:57 30.77020 -82.34541 33949 ft 456 kts 191°
2026-05-08 00:57 30.73804 -82.34157 33951 ft 476 kts 176°
2026-05-08 00:58 30.70636 -82.32831 33952 ft 492 kts 165°
2026-05-08 00:58 30.64335 -82.29590 33952 ft 491 kts 166°
2026-05-08 00:59 30.58034 -82.26510 33952 ft 491 kts 166°
2026-05-08 00:59 30.51734 -82.23454 33953 ft 491 kts 166°
2026-05-08 01:00 30.45451 -82.20424 33954 ft 485 kts 166°
2026-05-08 01:00 30.39134 -82.18308 33955 ft 457 kts 187°
2026-05-08 01:00 30.36042 -82.18577 33964 ft 439 kts 201°
2026-05-08 01:01 30.33186 -82.19614 33964 ft 423 kts 213°
2026-05-08 01:01 30.30673 -82.21276 33969 ft 411 kts 224°
2026-05-08 01:01 30.28558 -82.23436 33970 ft 402 kts 233°
2026-05-08 01:02 30.24816 -82.28226 33972 ft 401 kts 234°
2026-05-08 01:02 30.20992 -82.32925 33971 ft 405 kts 229°
2026-05-08 01:03 30.16147 -82.36469 33941 ft 425 kts 211°
2026-05-08 01:03 30.13259 -82.37434 33959 ft 440 kts 200°
2026-05-08 01:03 30.10155 -82.37720 33968 ft 456 kts 189°
2026-05-08 01:04 30.03769 -82.37308 33980 ft 460 kts 186°
2026-05-08 01:04 29.97387 -82.36899 33990 ft 459 kts 187°
2026-05-08 01:05 29.91003 -82.36542 34007 ft 459 kts 187°
2026-05-08 01:05 29.84637 -82.36186 33993 ft 458 kts 186°
2026-05-08 01:06 29.78276 -82.35829 34023 ft 456 kts 186°
2026-05-08 01:06 29.71940 -82.35477 34030 ft 456 kts 186°
2026-05-08 01:07 29.65611 -82.35122 33812 ft 452 kts 187°
2026-05-08 01:07 29.62490 -82.34951 33165 ft 449 kts 186°
2026-05-08 01:07 29.59370 -82.34780 32382 ft 447 kts 186°
2026-05-08 01:07 29.56262 -82.34611 31565 ft 448 kts 186°
2026-05-08 01:08 29.53144 -82.34440 30752 ft 449 kts 185°
2026-05-08 01:08 29.50023 -82.34269 29863 ft 450 kts 185°
2026-05-08 01:08 29.46886 -82.34093 28899 ft 452 kts 185°
2026-05-08 01:08 29.43737 -82.33919 27993 ft 454 kts 185°
2026-05-08 01:09 29.40584 -82.33730 27087 ft 457 kts 183°
2026-05-08 01:09 29.37400 -82.33383 26129 ft 461 kts 181°
2026-05-08 01:09 29.34209 -82.33006 25177 ft 462 kts 181°
2026-05-08 01:09 29.31012 -82.32617 24298 ft 461 kts 180°
2026-05-08 01:10 29.27834 -82.32230 23556 ft 461 kts 180°
2026-05-08 01:10 29.24633 -82.31845 22731 ft 462 kts 180°
2026-05-08 01:10 29.21451 -82.31465 22152 ft 461 kts 180°
2026-05-08 01:10 29.18176 -82.31082 21743 ft 479 kts 180°
2026-05-08 01:11 29.14893 -82.30687 21297 ft 470 kts 180°
2026-05-08 01:11 29.11669 -82.30297 20674 ft 462 kts 180°
2026-05-08 01:11 29.08501 -82.29918 20056 ft 454 kts 180°
2026-05-08 01:11 29.05385 -82.29548 19464 ft 446 kts 180°
2026-05-08 01:12 29.02332 -82.29191 18839 ft 438 kts 180°
2026-05-08 01:12 28.99327 -82.28841 18141 ft 431 kts 180°
2026-05-08 01:12 28.96346 -82.28495 17364 ft 429 kts 180°
2026-05-08 01:12 28.93396 -82.28146 16695 ft 424 kts 179°
2026-05-08 01:13 28.90476 -82.27800 16094 ft 419 kts 179°
2026-05-08 01:13 28.87595 -82.27458 15523 ft 414 kts 179°
2026-05-08 01:13 28.84749 -82.27119 14979 ft 409 kts 179°
2026-05-08 01:13 28.81932 -82.26785 14514 ft 405 kts 179°
2026-05-08 01:14 28.79152 -82.26454 14012 ft 395 kts 178°
2026-05-08 01:14 28.76476 -82.26133 13441 ft 378 kts 178°
2026-05-08 01:14 28.73929 -82.25853 13073 ft 355 kts 181°
2026-05-08 01:14 28.71549 -82.25772 12838 ft 331 kts 183°
2026-05-08 01:15 28.69303 -82.25735 12490 ft 315 kts 184°
2026-05-08 01:15 28.67159 -82.25705 12035 ft 304 kts 184°
2026-05-08 01:15 28.65053 -82.25679 11614 ft 301 kts 184°
2026-05-08 01:15 28.62993 -82.25650 11311 ft 291 kts 183°
2026-05-08 01:16 28.61002 -82.25618 11078 ft 282 kts 183°
2026-05-08 01:16 28.59050 -82.25584 10813 ft 279 kts 183°
2026-05-08 01:16 28.57121 -82.25550 10546 ft 274 kts 183°
2026-05-08 01:16 28.55222 -82.25515 10271 ft 275 kts 183°
2026-05-08 01:17 28.53924 -82.25493 10093 ft 277 kts 183°
2026-05-08 01:17 28.51997 -82.25462 9831 ft 277 kts 183°
2026-05-08 01:17 28.49458 -82.25422 9471 ft 275 kts 182°
2026-05-08 01:17 28.48168 -82.25403 9277 ft 274 kts 183°
2026-05-08 01:18 28.46272 -82.25374 9023 ft 273 kts 182°
2026-05-08 01:18 28.44377 -82.25348 8757 ft 271 kts 182°
2026-05-08 01:18 28.42496 -82.25323 8493 ft 270 kts 182°
2026-05-08 01:18 28.40626 -82.25299 8231 ft 266 kts 182°
2026-05-08 01:19 28.38793 -82.25277 7963 ft 260 kts 182°
2026-05-08 01:19 28.36982 -82.25255 7697 ft 264 kts 182°
2026-05-08 01:19 28.35141 -82.25237 7444 ft 264 kts 181°
2026-05-08 01:19 28.33308 -82.25274 7173 ft 262 kts 190°
2026-05-08 01:20 28.31615 -82.25943 6899 ft 257 kts 208°
2026-05-08 01:20 28.30012 -82.26831 6734 ft 257 kts 205°
2026-05-08 01:20 28.28397 -82.27753 6570 ft 256 kts 214°
2026-05-08 01:20 28.27010 -82.29026 6426 ft 268 kts 223°
2026-05-08 01:21 28.25369 -82.30082 6253 ft 277 kts 195°
2026-05-08 01:21 28.23589 -82.30846 6308 ft 267 kts 211°
2026-05-08 01:21 28.22271 -82.32250 5959 ft 259 kts 239°
2026-05-08 01:21 28.21655 -82.34110 5561 ft 247 kts 259°
2026-05-08 01:22 28.21383 -82.35989 5075 ft 239 kts 261°
2026-05-08 01:22 28.21090 -82.37745 4949 ft 216 kts 259°
2026-05-08 01:22 28.20809 -82.39370 4511 ft 207 kts 259°
2026-05-08 01:22 28.20500 -82.40870 4343 ft 188 kts 251°
2026-05-08 01:23 28.19842 -82.42149 4058 ft 186 kts 233°
2026-05-08 01:23 28.18982 -82.43235 3842 ft 185 kts 228°
2026-05-08 01:23 28.18060 -82.44257 3627 ft 184 kts 225°
2026-05-08 01:23 28.17106 -82.45251 3467 ft 187 kts 226°
2026-05-08 01:24 28.16198 -82.46309 3367 ft 187 kts 230°
2026-05-08 01:24 28.15397 -82.47475 3256 ft 188 kts 238°
2026-05-08 01:24 28.14702 -82.48714 3196 ft 181 kts 239°
2026-05-08 01:24 28.13931 -82.49764 3059 ft 168 kts 225°
2026-05-08 01:25 28.13030 -82.50551 2859 ft 160 kts 216°
2026-05-08 01:25 28.12054 -82.51149 2606 ft 160 kts 207°
2026-05-08 01:25 28.11024 -82.51636 2383 ft 161 kts 206°
2026-05-08 01:25 28.09986 -82.52100 2168 ft 160 kts 205°
2026-05-08 01:26 28.08958 -82.52360 1953 ft 147 kts 188°
2026-05-08 01:26 28.07945 -82.52429 1702 ft 146 kts 187°
2026-05-08 01:26 28.06937 -82.52478 1469 ft 144 kts 187°
2026-05-08 01:26 28.05935 -82.52543 1224 ft 144 kts 186°
2026-05-08 01:27 28.04912 -82.52584 1007 ft 150 kts 185°
2026-05-08 01:27 28.03868 -82.52626 900 ft 149 kts 185°
2026-05-08 01:27 28.02846 -82.52675 787 ft 146 kts 184°
2026-05-08 01:27 28.01829 -82.52700 641 ft 146 kts 184°
2026-05-08 01:28 28.00821 -82.52732 503 ft 144 kts 186°
2026-05-08 01:28 27.99809 -82.52798 357 ft 144 kts 182°
2026-05-08 01:28 27.98718 -82.52809 118 ft 143 kts 189°
2026-05-08 01:28 27.97673 -82.52891 332 ft 168 kts 183°
2026-05-08 01:29 27.96328 -82.52905 1020 ft 216 kts 180°
2026-05-08 01:29 27.94739 -82.52692 1828 ft 232 kts 162°
2026-05-08 01:29 27.93346 -82.51770 2601 ft 236 kts 142°
2026-05-08 01:29 27.92057 -82.50623 2916 ft 236 kts 135°
2026-05-08 01:30 27.91193 -82.49057 2988 ft 237 kts 106°
2026-05-08 01:30 27.91092 -82.47224 2999 ft 234 kts 76°
2026-05-08 01:30 27.91779 -82.45581 3000 ft 232 kts 47°
2026-05-08 01:30 27.93063 -82.44543 2995 ft 228 kts 17°
2026-05-08 01:31 27.94608 -82.44213 3007 ft 226 kts
2026-05-08 01:31 27.96172 -82.44081 2998 ft 225 kts
2026-05-08 01:31 27.97731 -82.44056 2992 ft 224 kts 358°
2026-05-08 01:31 27.99293 -82.44060 2990 ft 225 kts 358°
2026-05-08 01:32 28.00803 -82.44068 2981 ft 209 kts 358°
2026-05-08 01:32 28.02259 -82.44071 2994 ft 210 kts 358°
2026-05-08 01:32 28.03719 -82.44070 2983 ft 209 kts 358°
2026-05-08 01:32 28.05144 -82.44067 2812 ft 200 kts 358°
2026-05-08 01:33 28.06519 -82.44063 2519 ft 196 kts 358°
2026-05-08 01:33 28.07858 -82.44217 2186 ft 191 kts 340°
2026-05-08 01:33 28.09010 -82.44868 1999 ft 177 kts 321°
2026-05-08 01:33 28.09677 -82.45944 1961 ft 170 kts 283°
2026-05-08 01:34 28.09748 -82.47264 1997 ft 167 kts 270°
2026-05-08 01:34 28.09709 -82.48587 2065 ft 169 kts 270°
2026-05-08 01:34 28.09597 -82.49853 1991 ft 156 kts 258°
2026-05-08 01:34 28.09039 -82.50910 1958 ft 160 kts 230°
2026-05-08 01:35 28.08064 -82.51573 1858 ft 165 kts 204°
2026-05-08 01:35 28.07016 -82.51905 1746 ft 150 kts 200°
2026-05-08 01:35 28.06007 -82.52174 1467 ft 149 kts 197°
2026-05-08 01:35 28.04989 -82.52400 1192 ft 148 kts 193°
2026-05-08 01:36 28.03977 -82.52564 954 ft 148 kts 189°
2026-05-08 01:36 28.02965 -82.52659 745 ft 144 kts 186°
2026-05-08 01:36 28.02290 -82.52710 622 ft 145 kts 184°
2026-05-08 01:36 28.01291 -82.52727 469 ft 143 kts 185°
2026-05-08 01:37 28.00305 -82.52783 352 ft 141 kts 180°
2026-05-08 01:37 27.99321 -82.52798 202 ft 141 kts 183°
2026-05-08 01:37 27.98327 -82.52844 58 ft 138 kts 181°
2026-05-08 01:37 27.97456 -82.52873 43 ft 105 kts 179°
2026-05-08 01:38 27.96985 -82.52883 42 ft 42 kts 180°
2026-05-08 01:38 27.96885 -82.52932 43 ft 6 kts 261°
2026-05-08 01:38 27.96886 -82.52990 46 ft 8 kts 300°
2026-05-08 01:38 27.96918 -82.53001 46 ft 5 kts 347°
2026-05-08 01:39 27.96964 -82.53006 45 ft 8 kts
2026-05-08 01:39 27.97029 -82.53005 42 ft 11 kts
2026-05-08 01:39 27.97117 -82.53003 43 ft 15 kts
2026-05-08 01:39 27.97226 -82.52999 47 ft 17 kts
2026-05-08 01:40 27.97290 -82.52996 47 ft 0 kts
2026-05-08 01:40 27.97302 -82.52996 47 ft 3 kts
2026-05-08 01:40 27.97331 -82.52995 47 ft 5 kts
2026-05-08 01:41 27.97373 -82.52992 47 ft 8 kts
2026-05-08 01:41 27.97435 -82.52987 47 ft 11 kts
2026-05-08 01:41 27.97512 -82.52997 47 ft 11 kts 320°
2026-05-08 01:41 27.97559 -82.53065 48 ft 9 kts 326°
2026-05-08 01:42 27.97627 -82.53087 48 ft 5 kts 345°
2026-05-08 01:42 27.97643 -82.53119 48 ft 6 kts 291°
2026-05-08 01:42 27.97646 -82.53140 48 ft 1 kts 276°
2026-05-08 01:42 27.97649 -82.53155 48 ft 0 kts 280°